Temp
28 30 29 32 32 32 32 31 31 32 33 33 34 34 34 31 31 31 31 31 31 30 31 30 29 28 28 27 25 24 24 25 23 23 23 23 23 23 23 23 23 23 23 23
30 30 32 32 32 32 31 31 32 33 33 33 33 33 34 32 32 32 32 31 31 32 32 31 30 29 28 28 26 25 25 24 24 23 23 24 24 24 24 24 23 24 25 25
30 32 31 31 32 32 32 32 32 34 33 33 33 34 33 33 32 32 33 33 33 33 33 33 31 29 29 28 27 26 27 26 25 25 23 23 23 23 23 24 23 24 26 25
31 32 32 32 33 32 32 33 33 33 33 34 32 35 33 34 34 33 33 33 33 33 33 33 32 31 30 29 28 27 28 27 26 24 24 24 25 25 26 25 25 25 26 26
32 32 32 32 33 33 34 33 33 33 33 33 33 35 36 32 34 35 36 35 35 34 34 34 34 33 32 31 29 28 27 27 27 25 24 24 24 25 26 25 24 23 24 26
31 32 32 34 34 34 34 33 33 33 34 34 32 34 37 36 35 37 37 36 36 35 34 34 34 33 32 30 29 28 28 30 27 26 25 25 25 24 25 25 24 24 23 24
31 32 32 33 33 34 34 35 35 35 35 35 31 33 36 35 35 34 36 37 36 35 35 34 33 32 31 31 29 29 26 27 29 28 25 26 25 24 24 24 24 24 24 23
31 34 33 34 35 36 35 36 36 34 35 35 31 34 36 33 33 33 33 33 32 33 34 33 32 32 31 30 29 28 27 26 26 26 27 26 25 24 24 23 24 23 24 24
32 33 34 34 36 36 34 35 33 33 30 34 34 34 34 34 34 32 32 32 31 31 31 31 30 29 28 28 27 27 26 25 24 24 26 26 26 24 24 23 23 23 23 23
32 32 33 34 35 34 35 33 35 34 33 34 33 33 36 34 33 31 31 30 30 30 29 29 28 26 26 25 25 24 24 23 23 23 23 23 23 23 22 22 22 21 21 22
32 32 34 33 35 36 34 35 31 33 33 35 35 36 32 31 30 31 30 29 29 28 28 27 26 25 24 24 23 23 23 23 23 24 23 23 23 22 21 21 21 21 21 20
32 33 33 36 34 33 34 35 36 37 33 31 33 36 30 29 29 30 29 28 28 28 28 27 26 25 24 24 24 23 23 23 23 23 23 23 22 21 21 21 21 21 20 20
29 31 34 35 36 34 35 33 33 33 34 33 36 36 30 30 30 29 29 28 28 28 28 27 27 26 25 24 23 23 23 23 23 22 22 22 22 21 21 21 21 22 20 20
31 32 34 35 35 34 34 34 33 35 36 34 36 33 30 30 30 29 29 28 28 27 27 27 27 25 25 25 24 24 24 23 24 23 22 22 22 22 21 22 22 21 20 20
31 32 31 33 33 32 33 33 33 34 34 37 35 34 32 30 30 30 29 28 28 27 27 27 27 26 26 25 25 24 24 23 23 22 23 22 21 21 21 21 20 21 20 20
29 30 29 32 33 34 33 32 32 32 31 31 31 31 31 29 29 29 28 28 28 27 27 26 27 26 26 25 24 24 24 23 22 22 22 22 22 21 21 20 20 20 20 20
31 33 30 32 30 33 34 32 31 31 30 32 33 33 29 28 29 29 28 28 28 27 27 27 27 26 25 24 22 23 22 21 21 21 21 20 20 20 20 20 20 21 20 20
30 31 30 33 31 32 32 29 30 31 30 30 30 29 30 30 29 29 28 28 27 27 27 27 26 25 23 23 23 21 22 21 20 20 19 19 19 19 19 19 19 20 19 19
30 31 29 31 32 31 31 31 31 32 32 30 30 29 28 27 28 27 27 26 27 27 26 25 24 23 22 22 21 20 20 20 19 19 18 18 18 18 18 18 18 18 18 19
30 29 33 28 32 32 32 31 31 32 33 29 30 29 28 27 29 29 26 26 26 25 24 24 24 23 22 20 19 19 19 19 19 17 17 17 17 17 17 17 17 17 18 18
31 30 32 30 33 32 30 29 30 32 31 29 29 28 27 28 28 27 27 26 25 24 23 22 22 22 20 19 18 19 18 18 16 16 16 16 16 16 17 16 16 16 16 16
32 32 31 29 32 32 28 30 32 29 27 28 28 28 27 27 26 26 26 25 24 23 23 22 22 21 19 18 17 17 17 16 15 15 14 14 15 15 15 15 15 15 15 15
31 30 32 30 31 26 26 27 26 27 28 27 28 27 27 27 27 26 24 24 23 23 22 21 21 20 19 17 16 17 16 15 14 13 14 14 14 14 14 14 15 15 15 15
27 25 29 26 26 27 27 27 27 28 28 27 28 27 27 26 26 24 23 23 23 22 21 20 19 19 18 16 16 15 15 14 14 14 14 14 14 14 14 14 15 15 15 15
29 27 26 26 26 26 27 27 27 26 26 26 26 26 26 25 24 24 23 22 22 20 19 18 18 17 16 14 15 14 14 13 14 13 14 14 14 14 13 13 13 14 15 14
27 28 31 32 28 29 28 27 27 26 26 26 26 25 24 25 24 23 22 21 20 19 18 18 17 15 14 14 14 14 13 13 13 12 13 13 13 12 12 12 12 13 13 12
Height
773 780 788 772 770 770 776 782 786 775 763 769 770 771 767 770 773 776 777 778 778 779 777 780 782 784 787 789 790 792 794 794 799 802 806 809 809 811 812 813 814 815 817 819
778 783 767 762 766 772 777 783 781 771 762 768 771 772 764 767 766 766 771 773 773 772 773 774 777 779 780 780 783 786 786 789 793 798 800 803 806 807 809 810 809 809 810 811
783 769 762 767 771 776 775 781 779 775 770 767 772 774 771 761 761 762 763 764 765 765 765 765 769 770 772 774 777 779 780 783 787 791 797 799 801 802 802 800 799 798 800 802
772 759 764 766 769 768 781 760 765 773 780 788 775 796 777 763 764 762 759 759 757 757 758 758 759 761 765 767 771 773 775 778 781 786 789 790 791 793 791 792 792 791 792 794
770 765 765 768 763 760 767 755 764 770 779 783 786 787 769 771 768 758 749 747 746 746 748 748 748 753 757 762 764 766 769 772 774 777 781 785 786 785 785 786 786 786 786 787
763 753 757 754 750 753 754 764 768 773 775 797 794 786 774 770 762 750 742 741 739 740 743 742 744 749 751 755 759 763 764 766 772 774 775 776 777 778 780 779 779 777 778 780
767 759 750 747 761 752 758 767 792 798 797 799 791 794 770 758 754 752 746 740 739 739 740 741 745 750 753 755 758 761 762 763 764 766 766 766 767 770 771 771 770 770 770 769
784 780 755 743 748 752 759 757 780 812 803 794 795 793 770 757 753 747 746 747 746 742 739 742 744 746 747 749 753 758 758 760 762 762 762 762 763 765 764 764 763 763 763 764
781 775 744 739 735 741 762 768 761 785 804 797 789 775 759 753 754 754 751 748 750 748 747 747 747 749 749 751 754 756 760 761 762 762 760 759 759 758 758 757 758 759 758 757
762 779 750 742 738 745 747 755 774 779 812 811 795 794 773 763 762 762 758 757 757 754 755 754 754 754 756 758 759 759 760 761 761 761 760 759 757 756 755 756 755 755 754 753
754 764 757 749 749 749 760 762 775 773 786 790 798 781 764 767 768 767 765 762 760 760 761 761 761 762 763 762 762 763 764 764 763 761 760 758 756 754 754 753 752 751 750 749
751 757 768 750 739 737 742 750 749 767 793 794 787 776 762 765 765 765 767 765 762 761 761 762 762 763 765 765 766 765 765 765 764 762 760 758 756 755 754 752 750 748 744 741
756 765 770 759 745 743 748 753 755 756 763 783 780 773 762 764 765 766 767 765 763 762 760 762 764 766 768 768 768 767 767 766 764 762 761 759 758 756 753 751 747 744 740 736
742 754 753 767 759 752 757 753 755 752 764 773 762 768 770 768 767 766 765 763 764 766 766 767 769 770 770 770 769 769 768 766 764 762 759 758 756 753 750 747 743 739 736 732
744 758 757 751 749 753 755 755 754 756 756 757 757 761 762 764 765 763 764 765 766 768 768 769 769 771 771 770 770 770 769 767 764 762 759 757 753 750 746 742 739 736 733 729
745 765 765 764 750 747 758 758 756 757 762 765 764 768 755 762 763 766 766 766 768 769 771 771 772 772 772 772 771 770 768 766 764 762 759 755 750 746 742 739 735 731 728 725
747 746 771 773 763 758 766 758 758 758 758 756 763 753 759 767 767 767 767 767 769 770 771 771 771 771 772 772 771 769 768 766 763 761 758 753 749 744 739 734 730 726 723 718
743 753 770 769 772 792 758 752 751 754 757 754 756 757 757 760 762 763 767 768 770 771 771 771 771 772 772 771 770 768 767 765 762 759 756 752 747 741 736 730 725 721 718 714
735 748 772 777 773 768 757 752 752 751 756 751 755 758 761 764 764 769 767 769 770 770 770 771 772 771 771 770 769 768 765 763 761 758 754 749 744 738 733 727 722 717 713 708
737 743 748 774 771 779 749 742 738 740 761 749 751 758 762 764 774 766 767 770 770 771 772 772 771 771 771 771 769 767 764 761 758 756 751 747 742 737 731 725 720 714 709 704
748 752 756 763 757 753 745 742 738 767 765 749 751 757 762 765 763 765 767 769 771 772 772 773 773 773 773 771 768 765 762 759 756 753 749 745 740 735 729 724 718 711 705 700
745 749 755 762 760 766 744 742 752 748 749 749 752 756 760 761 764 764 767 770 772 772 774 774 774 773 772 770 767 764 760 758 754 750 745 741 737 733 727 722 716 710 704 698
752 745 745 751 751 750 743 746 744 743 745 750 752 755 757 759 762 765 768 770 772 773 774 774 774 773 771 769 767 763 760 757 752 747 743 739 735 730 724 719 713 708 703 697
747 748 747 755 751 746 746 745 743 742 744 748 750 754 757 761 763 766 768 770 772 773 774 774 774 772 771 769 766 764 760 756 751 746 742 738 734 728 722 717 712 707 702 696
737 744 750 753 749 746 743 742 743 746 748 751 754 756 759 762 765 767 770 771 773 775 775 775 774 773 772 769 767 764 760 755 750 746 742 738 733 728 722 717 713 707 703 699
733 735 736 733 728 730 735 740 744 747 750 752 754 759 762 763 765 768 770 773 775 775 775 774 774 774 772 770 768 764 760 756 751 747 742 738 734 728 723 717 712 708 704 698
Wind_Speed
2 1 3 5 3 7 6 1 1 3 4 3 7 7 5 13 13 13 13 14 16 17 20 21 24 25 24 24 24 24 24 31 26 22 20 21 22 22 22 22 23 24 23 20
1 6 3 5 8 3 1 2 3 3 4 8 2 2 3 11 14 15 14 15 16 17 16 20 22 24 26 29 28 26 31 28 29 24 24 20 16 19 21 19 22 29 30 29
5 1 3 7 5 3 3 5 4 2 4 1 2 2 3 5 10 8 14 14 16 17 17 17 20 24 25 26 26 29 34 33 31 31 21 17 18 16 17 22 24 27 31 32
5 2 5 6 5 4 3 6 3 7 6 1 4 2 3 5 6 11 13 14 17 18 18 18 19 21 22 26 23 25 32 32 30 28 26 28 25 24 28 26 23 26 27 29
2 3 3 5 4 7 2 1 9 5 4 2 2 3 2 0 7 12 11 14 16 17 18 19 20 23 23 21 23 24 27 29 31 29 31 26 26 27 26 23 22 23 25 28
5 2 4 5 4 11 10 6 8 5 2 2 1 3 2 3 5 6 11 13 15 14 16 17 21 17 20 17 20 20 26 31 26 28 32 35 33 29 26 23 24 22 21 24
4 4 2 6 6 6 8 5 2 3 3 1 4 4 2 5 8 11 12 8 9 8 11 12 11 10 12 12 13 15 18 26 30 30 31 36 39 32 30 30 28 27 25 25
3 4 7 9 7 5 11 4 3 1 0 3 3 4 2 3 7 5 3 7 6 6 3 2 1 5 8 9 9 11 15 20 22 24 33 33 34 30 31 31 32 30 29 28
4 4 2 7 3 1 4 3 3 5 2 3 0 2 6 1 9 12 11 12 14 13 13 12 13 15 15 13 10 6 3 6 9 13 21 27 31 32 31 30 28 28 27 32
5 4 3 2 3 5 3 8 3 1 4 3 2 4 2 3 10 9 11 13 13 15 16 15 16 20 20 18 17 18 15 12 9 6 6 11 17 22 24 22 22 22 26 31
6 3 1 2 5 7 4 4 5 4 2 2 3 3 1 7 5 3 7 10 12 13 13 14 15 18 18 19 20 18 18 16 16 14 13 11 9 7 8 11 15 19 22 24
4 3 4 1 1 2 1 3 5 3 4 1 2 1 3 1 5 7 7 8 11 13 13 13 15 18 19 19 18 17 14 12 12 10 9 7 5 3 7 15 18 20 25 25
8 4 3 5 5 4 1 3 3 6 3 5 2 2 4 6 9 7 8 9 10 12 15 14 15 17 17 15 14 12 10 11 11 12 10 9 9 11 13 15 17 19 19 21
8 4 2 1 1 1 2 4 6 1 3 6 5 6 9 8 8 7 8 9 10 11 11 11 10 11 13 12 12 11 10 11 13 13 12 11 11 13 15 16 17 19 18 18
2 2 1 4 5 3 1 1 6 4 0 4 2 9 15 11 8 7 7 7 8 8 9 8 9 8 9 9 7 7 9 9 14 14 14 15 16 17 17 17 17 19 18 17
1 1 5 3 2 5 3 2 6 4 5 3 5 5 7 7 6 7 7 6 6 6 6 6 6 6 5 5 7 9 10 12 14 17 19 21 23 22 22 22 20 18 19 18
2 4 1 3 5 2 2 1 1 2 2 5 5 4 12 8 7 7 7 5 6 5 4 3 3 4 6 9 11 14 15 15 15 18 21 23 22 23 23 24 24 22 24 24
9 5 3 3 1 5 2 1 6 2 3 4 4 13 14 11 6 6 4 6 6 5 3 1 3 6 8 12 15 16 17 16 17 19 20 20 21 22 23 22 22 23 21 21
3 6 3 4 6 2 3 4 5 2 2 6 10 12 10 9 7 3 5 4 5 3 0 3 6 8 10 12 13 15 17 17 17 18 20 22 22 23 22 22 23 23 22 23
6 3 4 4 3 5 1 2 3 3 3 10 11 14 12 9 4 3 8 7 5 3 2 5 7 8 9 11 13 15 17 18 18 19 21 21 20 21 22 23 23 24 23 24
5 3 5 3 2 1 1 1 2 3 3 10 11 11 11 5 2 5 9 6 4 3 4 5 6 7 8 11 15 17 18 18 21 22 22 21 21 20 20 22 22 23 24 23
1 4 3 2 2 3 1 3 3 3 6 9 9 7 7 6 7 7 6 5 4 5 5 5 7 10 12 14 15 17 17 21 22 22 20 23 22 20 20 23 23 23 22 22
1 1 1 2 2 1 1 2 2 6 10 6 10 8 8 8 6 6 5 5 5 5 4 6 9 12 13 14 15 18 20 22 22 21 22 22 22 22 22 22 22 21 21 19
2 2 1 4 1 5 5 4 5 7 9 9 8 9 7 7 7 6 6 5 3 3 5 7 9 11 14 16 17 17 19 21 22 22 22 20 22 24 22 21 21 20 20 21
2 6 4 2 2 2 4 4 7 9 10 10 8 6 7 8 6 6 5 3 2 4 5 7 9 11 12 15 17 18 20 21 22 21 20 21 21 20 22 22 23 23 22 25
6 6 5 4 11 4 10 10 9 10 9 9 9 7 6 6 7 6 4 3 3 4 7 9 10 10 11 15 15 17 19 19 20 19 18 20 21 21 20 21 22 22 22 25
Wind_Direction
16 270 239 272 192 106 106 116 314 255 226 280 240 244 193 187 204 207 209 210 214 220 231 234 234 235 236 236 233 228 227 233 225 222 225 232 237 239 241 242 246 248 250 254
160 255 219 75 183 204 164 278 271 275 339 208 214 232 210 185 219 214 212 216 225 231 236 237 236 236 232 233 230 229 234 231 230 224 226 229 236 244 247 250 250 252 251 250
222 87 189 211 202 218 239 236 207 177 108 167 222 182 205 215 230 225 224 224 229 234 237 239 235 233 233 234 229 229 238 236 235 230 223 230 235 244 247 245 246 247 250 251
248 247 220 206 243 205 284 224 219 162 188 144 328 84 242 227 248 237 233 226 231 233 234 241 240 236 231 233 231 233 239 240 239 231 221 220 224 233 240 243 246 249 252 251
19 301 258 239 240 181 323 81 155 135 137 213 170 245 146 237 236 242 238 234 236 234 232 235 234 235 233 231 226 231 236 240 239 232 229 231 238 243 251 249 249 255 256 258
276 247 250 248 275 214 151 101 92 98 186 256 7 252 125 196 244 249 237 239 246 233 237 241 245 242 237 231 225 226 232 242 241 240 243 237 236 239 246 246 245 245 247 254
323 238 252 227 253 184 216 205 153 171 181 30 338 208 295 312 311 278 288 284 294 275 251 251 260 263 267 251 239 231 232 238 242 243 240 245 245 241 241 243 246 245 245 240
284 214 192 178 228 202 187 230 229 249 224 68 146 210 162 346 336 344 350 28 33 30 351 347 312 259 266 270 256 229 244 248 246 249 254 254 254 247 247 247 246 249 250 247
187 267 267 229 250 213 161 195 31 104 50 254 199 239 255 253 54 33 48 60 51 58 60 63 66 60 50 39 31 13 326 280 269 261 271 271 267 259 252 251 250 253 250 249
186 264 204 158 141 53 258 132 141 83 168 208 173 279 207 353 357 17 57 67 62 63 64 66 67 64 60 58 58 56 52 49 39 17 317 289 281 274 269 266 261 255 257 260
152 227 154 239 201 175 140 167 69 105 311 215 186 212 195 293 337 63 64 68 73 74 74 73 73 71 70 67 61 58 56 49 37 31 23 11 351 324 289 277 275 272 271 266
196 212 252 230 84 1 85 149 170 209 177 67 304 165 350 0 117 111 90 74 72 76 81 80 76 73 70 69 64 58 53 48 43 35 24 14 1 329 319 303 293 290 287 286
175 237 240 150 147 110 197 132 123 109 137 175 222 126 112 131 116 103 102 87 79 72 65 66 66 65 64 62 59 52 43 30 19 11 358 342 317 303 309 313 308 310 301 297
156 214 178 87 10 59 219 149 156 287 179 156 227 165 178 158 128 117 111 90 78 75 77 80 77 72 64 56 45 31 20 12 6 359 350 335 325 315 309 310 312 312 307 299
210 213 96 287 262 201 51 105 179 209 49 238 43 199 178 164 149 130 115 103 100 94 88 81 75 62 52 39 19 5 4 2 357 348 339 330 324 319 313 308 305 309 307 301
149 352 58 280 15 134 118 103 113 118 142 94 149 175 170 145 137 148 146 140 123 111 103 90 80 59 37 2 352 345 348 351 346 337 327 322 320 317 313 310 311 309 308 305
134 127 163 324 18 346 264 336 320 103 182 155 179 158 150 150 167 168 162 169 152 138 134 120 62 9 350 0 352 337 330 326 330 329 325 325 326 321 315 310 306 300 299 300
125 155 199 252 221 215 67 280 224 222 176 178 136 154 160 158 146 156 176 186 169 177 181 214 323 340 351 348 343 336 329 323 325 326 326 326 325 319 317 316 312 310 308 303
130 144 140 198 205 278 193 183 152 195 134 173 153 144 133 127 131 160 180 177 189 177 51 341 342 334 333 343 340 333 323 324 328 329 327 326 326 321 318 314 315 313 309 305
113 64 218 173 173 195 99 129 197 172 256 165 163 157 153 152 192 175 175 186 159 112 19 349 354 352 2 346 333 328 326 328 334 335 330 328 331 326 321 319 317 311 308 303
136 106 199 174 156 163 128 134 216 221 26 153 154 155 156 178 26 114 156 141 110 81 51 36 31 2 353 344 338 331 331 339 336 334 332 332 333 328 326 323 320 315 315 314
201 159 154 150 148 197 134 161 233 90 123 133 134 143 155 143 141 130 131 120 108 100 78 34 358 352 352 351 345 340 342 339 336 337 338 339 338 335 334 330 323 324 320 317
261 313 190 223 77 318 331 323 140 152 136 140 136 152 149 132 138 150 144 130 109 81 44 10 355 341 346 350 352 344 340 338 337 340 340 339 341 339 332 324 319 322 327 318
146 241 121 187 124 82 124 144 137 134 126 139 141 141 151 159 155 138 132 132 117 52 18 355 344 348 348 350 349 345 339 339 342 340 340 344 342 336 338 337 331 325 327 326
114 165 145 90 176 163 186 169 141 122 127 129 131 146 156 153 150 150 155 155 81 29 5 356 356 354 354 351 348 347 344 342 338 339 340 343 344 340 337 339 336 330 334 346
186 172 198 237 185 165 175 165 157 146 149 143 137 128 134 155 159 167 161 114 57 23 7 4 5 6 4 352 352 350 349 346 340 337 339 343 343 340 342 341 340 347 350 352